SCP
-0 -0 0 0 0 0 0 0 0 0 0 0 0 0 0 0 0 0 0 0 0 0 0 0 0 0 0 0 0 0 0 0 0 0 0 0 0 0 0 0 0 0 0 0
0 -0 0 -0 0 0 0 0 0 0 0 0 0 0 0 0 0 0 0 0 0 0 0 0 0 0 0 0 0 0 0 0 0 0 0 0 0 0 0 0 0 0 0 0
0 -0 0 0 0 0 0 0 0 0 0 0 0 0 0 0 0 0 0 0 0 0 0 0 0 0 0 0 0 0 0 0 0 0 0 0 0 0 0 0 0 0 0 0
0 0 0 0 -0 0 0 0 0 0 0 0 0 0 0 0 0 0 0 0 0 0 0 0 0 0 0 0 0 0 0 0 0 0 0 0 0 0 0 0 0 0 0 0
0 0 0 0 -0 0 0 0 0 0 0 0 0 0 0 0 0 0 0 0 0 0 0 0 0 0 0 0 0 0 0 0 0 0 0 0 0 0 0 0 0 0 0 0
0 0 0 0 0 0 0 0 0 0 0 0 0 0 0 0 0 0 0 0 0 0 0 0 0 0 0 0 0 0 0 0 0 0 0 0 0 0 0 0 0 0 0 0
0 0 0 0 0 0 0 0 0 0 0 0 0 0 0 0 0 0 0 0 0 0 0 0 0 0 0 0 0 0 0 0 0 0 0 0 0 0 0 0 0 0 0 0
0 0 0 0 0 0 0 0 0 0 0 0 0 0 0 0 0 0 0 0 0 0 0 0 0 0 0 0 0 0 0 0 0 0 0 0 0 0 0 0 0 0 0 0
0 0 0 0 0 0 0 0 0 0 0 0 0 0 0 0 0 0 0 0 0 0 0 0 0 0 0 0 0 0 0 0 0 0 0 0 0 0 0 0 0 0 0 0
0 0 0 0 0 0 0 0 0 0 0 0 0 0 0 0 0 0 0 0 0 0 0 0 0 0 0 0 0 0 0 0 0 0 0 0 0 0 0 0 0 0 0 0
0 0 0 0 0 0 0 0 0 0 0 0 0 0 0 0 0 0 0 0 0 0 0 0 0 0 0 0 0 0 0 0 0 0 0 0 0 0 0 0 0 0 0 0
0 0 0 0 0 0 0 0 0 0 0 0 0 0 0 0 0 0 0 0 0 0 0 0 0 0 0 0 0 0 0 0 0 0 0 0 0 0 0 0 0 0 0 0
0 0 0 0 0 0 0 0 0 0 0 0 0 0 0 0 0 0 0 0 0 0 0 0 0 0 0 0 0 0 0 0 0 0 0 0 0 0 0 -0 -0 -0 -0 -0
0 0 0 0 0 0 -0 0 0 0 0 0 0 0 0 0 0 0 0 0 0 0 0 0 0 0 0 0 0 0 0 0 0 0 0 0 0 0 0 0 0 0 0 0
0 0 0 0 0 0 0 0 0 0 0 0 0 0 0 0 0 0 0 0 0 0 0 0 0 0 0 0 0 0 0 0 0 0 0 0 0 0 0 0 0 0 0 0
0 0 0 0 0 0 -0 -0 0 0 0 0 0 0 0 0 0 0 0 0 0 0 0 0 0 0 0 0 0 0 0 0 0 0 0 0 0 0 0 0 0 0 0 0
0 0 0 0 0 0 0 0 0 0 0 0 0 0 0 0 0 0 0 0 0 0 0 0 0 0 0 0 0 0 0 0 0 0 0 0 0 0 0 -0 0 0 0 0
0 0 0 0 0 0 0 0 0 0 0 0 0 0 0 0 0 0 0 0 0 0 0 0 0 0 0 0 0 0 0 0 0 0 0 0 0 0 0 0 0 0 0 0
-0 0 0 0 0 0 0 0 0 0 0 0 0 0 0 0 0 0 0 0 0 0 0 0 0 0 0 0 0 0 0 0 0 0 0 0 0 0 0 0 0 0 0 0
0 0 0 0 0 0 0 0 0 0 0 0 0 0 0 0 0 0 0 0 0 0 0 0 0 0 0 0 0 0 0 0 0 0 0 0 0 0 0 0 0 0 0 0
0 0 0 0 0 0 0 0 0 0 0 0 0 0 0 0 0 0 0 0 0 0 0 0 0 0 0 0 0 0 0 0 0 0 0 0 0 0 0 0 0 0 0 0
0 0 0 0 0 0 0 0 0 0 0 0 0 0 0 0 0 0 0 0 0 0 0 0 0 0 0 0 0 0 0 0 0 0 0 0 0 0 0 0 0 0 0 0
0 0 0 0 0 0 0 0 0 0 0 0 0 0 0 0 0 0 0 0 0 0 0 0 0 0 0 0 0 0 0 0 0 0 0 0 0 0 0 0 0 0 0 0
0 0 0 0 0 0 0 0 0 0 0 0 0 0 0 0 0 0 0 0 0 0 0 0 0 0 0 0 0 0 0 0 0 0 0 0 0 0 0 0 0 0 0 0
0 0 0 0 0 0 0 0 0 0 0 0 0 0 0 0 0 0 0 0 0 0 0 0 0 0 0 0 0 0 0 0 0 0 0 0 0 0 0 0 0 0 0 0
0 0 0 0 0 0 0 0 0 0 0 0 0 0 0 0 0 0 0 0 0 0 0 0 0 0 0 0 0 0 0 0 0 0 0 0 0 0 0 0 0 0 0 0
0 0 0 0 0 0 0 0 0 0 0 0 0 0 0 0 0 0 0 0 0 0 0 0 0 0 0 0 0 0 0 0 0 0 0 0 0 0 0 0 0 0 0 0
Wind_Speed_500mb
24 17 11 9 6 14 15 9 4 9 34 13 10 16 9 12 11 21 12 7 11 9 10 3 3 4 5 10 8 8 2 3 9 13 3 6 6 12 19 8 8 7 9 33
40 30 25 10 14 16 17 8 7 4 42 12 18 11 17 25 13 17 17 13 12 4 10 5 6 2 16 25 12 5 4 1 5 14 5 5 9 8 11 15 5 26 14 26
41 41 37 29 16 27 20 8 6 9 30 32 8 23 22 22 12 11 22 10 24 15 18 12 4 10 6 12 13 10 11 4 11 10 8 10 7 18 10 10 10 29 28 48
43 46 44 41 25 31 34 12 8 17 9 17 18 14 10 27 20 22 16 10 25 17 14 19 20 8 7 16 21 9 7 9 8 28 26 24 14 18 25 24 27 29 47 36
49 46 49 48 38 37 48 10 7 12 16 23 23 18 16 25 33 16 20 22 14 20 23 16 9 18 16 5 12 9 13 4 4 11 13 21 35 32 28 31 35 28 44 40
56 52 52 55 52 55 41 43 24 3 13 7 17 32 25 11 13 20 30 24 17 14 18 4 19 18 16 12 12 6 6 5 3 11 9 7 10 31 32 34 38 36 41 50
60 63 59 61 63 65 64 39 31 12 10 14 22 12 36 30 15 27 10 25 3 10 14 19 18 15 4 9 15 20 11 6 2 9 10 14 17 15 11 9 14 17 35 37
55 61 66 68 70 73 82 65 43 28 10 21 21 25 17 39 49 29 14 6 11 9 17 6 7 7 10 13 20 24 27 12 6 5 8 20 30 35 13 10 28 20 9 21
58 60 66 64 70 81 87 85 70 42 16 29 17 21 35 10 7 6 9 20 17 20 5 6 10 10 10 7 6 8 27 26 14 2 9 12 13 5 17 8 9 11 4 11
71 66 57 74 65 77 91 80 93 52 20 38 49 13 15 24 14 6 12 16 11 22 5 5 7 8 12 6 10 11 10 20 33 28 22 12 20 13 2 10 19 21 20 27
63 65 62 65 81 69 87 86 94 87 38 36 54 48 37 20 37 7 16 11 4 5 10 8 8 7 11 7 11 12 15 14 10 14 16 23 19 8 13 4 19 31 39 53
64 64 68 68 59 85 77 83 78 92 57 24 60 49 60 54 38 28 41 12 13 21 5 4 4 5 4 12 6 11 13 13 8 15 11 5 12 5 29 16 29 51 49 50
63 63 69 69 75 69 63 82 62 86 67 38 39 57 66 63 57 45 30 21 17 12 9 5 2 6 4 7 13 6 8 13 12 8 23 41 53 53 48 51 50 49 34 33
67 67 70 71 71 67 80 65 87 90 49 17 22 69 68 71 72 62 55 30 37 22 14 8 4 4 9 4 3 4 9 8 6 13 27 33 40 44 46 46 37 35 41 45
65 69 71 77 78 71 73 90 103 91 54 10 19 54 65 71 74 70 60 51 31 19 10 4 6 7 1 8 3 18 23 21 13 22 35 31 41 65 62 46 52 58 61 52
67 72 80 80 83 73 64 64 74 89 90 14 8 21 56 56 69 76 68 60 39 29 16 7 11 21 10 5 8 36 72 61 61 59 82 72 65 65 62 57 53 60 61 60
71 72 75 81 85 83 74 22 36 107 96 21 7 8 23 68 54 40 39 41 32 24 14 13 10 12 17 5 19 62 52 54 66 67 64 52 58 51 48 40 43 45 53 56
77 72 73 74 79 76 79 60 38 107 79 21 10 6 12 53 23 17 28 27 26 26 13 8 12 11 21 9 36 62 55 53 56 55 53 29 42 48 51 57 56 52 55 54
74 68 58 69 81 57 57 79 67 91 37 17 9 15 9 34 19 17 13 17 5 18 7 8 13 5 9 16 27 20 18 12 28 37 35 37 37 43 48 45 39 40 47 47
61 58 53 37 43 57 51 75 56 31 22 18 6 21 10 40 17 9 16 15 6 7 12 19 7 10 58 32 24 19 23 27 33 37 43 53 60 51 50 47 42 40 43 47
69 42 21 19 66 67 25 14 12 11 10 18 16 22 19 28 8 8 13 7 6 6 9 14 6 7 7 23 29 29 30 32 32 36 38 40 46 51 56 55 45 45 46 47
51 23 41 33 18 9 8 7 8 7 9 9 16 24 31 19 20 7 9 6 5 8 8 7 5 5 10 7 8 12 17 23 25 29 34 34 36 41 45 46 47 44 42 41
50 17 11 5 2 8 8 9 6 8 8 18 37 14 17 12 11 9 5 9 8 12 5 9 8 11 5 7 10 12 18 22 26 26 29 32 34 36 40 41 39 40 39 34
15 10 7 7 5 5 6 6 7 7 29 51 55 17 8 12 6 6 10 6 8 4 5 12 6 12 0 6 12 16 17 19 20 21 23 27 29 29 30 32 33 31 28 25
12 10 7 9 8 10 9 11 16 23 45 61 30 17 12 5 8 4 9 6 7 12 10 6 14 7 0 8 11 15 16 18 19 21 22 22 22 23 23 23 22 21 16 13
12 22 4 10 5 4 13 19 10 20 39 46 19 7 7 4 9 7 11 15 12 8 5 16 10 2 5 9 9 12 14 15 16 16 16 16 15 14 13 12 9 7 4 5
13 8 21 13 13 13 9 13 13 15 14 6 7 9 11 6 7 3 7 11 7 20 20 10 5 2 4 5 5 6 7 8 9 10 9 9 7 6 5 2 5 6 10 13
Wind_Direction_500mb
253 245 275 267 212 190 175 158 217 192 172 177 197 224 183 261 260 189 221 291 302 228 132 150 1 223 60 33 131 155 148 300 216 207 130 17 240 236 206 185 242 230 230 264
248 242 244 245 213 204 175 182 211 172 175 207 217 210 215 236 217 219 203 214 230 278 152 160 202 190 4 2 44 21 341 276 56 328 279 56 250 210 239 238 272 252 230 259
251 240 239 222 190 220 212 193 189 195 205 243 256 217 218 225 216 268 237 228 227 222 247 238 214 160 167 94 97 79 82 5 199 211 98 42 353 334 298 271 241 259 248 266
248 236 231 226 215 202 224 215 229 196 195 233 235 268 210 218 221 204 217 237 237 218 226 221 229 148 152 195 174 106 75 200 236 268 290 311 281 261 275 262 278 253 262 258
247 238 229 225 211 194 217 218 211 229 264 206 198 225 235 231 213 167 215 238 214 232 238 220 187 204 191 187 43 159 143 239 236 268 261 266 273 263 247 250 251 249 264 267
243 238 232 224 212 201 209 224 236 278 222 223 202 212 215 254 225 245 216 216 228 255 241 43 59 81 75 118 134 128 152 159 175 262 101 353 281 245 248 248 244 246 254 262
241 237 233 226 223 215 212 212 207 209 235 203 223 219 211 236 244 223 282 217 224 116 106 92 70 69 50 215 195 168 165 160 140 273 47 259 242 268 244 265 279 265 250 259
247 237 235 230 228 226 214 214 207 206 246 232 236 238 233 216 230 248 170 142 168 171 106 73 47 351 22 247 222 214 210 173 243 205 205 278 306 285 271 250 286 300 359 341
252 245 236 230 229 225 219 221 220 209 225 230 251 230 230 213 174 87 118 178 151 139 104 111 170 195 193 270 281 230 217 212 199 188 215 222 233 157 50 240 288 14 29 293
241 246 245 230 228 225 221 219 220 208 214 232 216 215 220 220 172 127 139 148 133 165 132 151 175 224 175 211 175 166 166 211 217 227 239 259 251 276 312 220 271 327 308 321
242 241 243 237 231 219 224 224 220 212 225 225 210 210 216 193 188 163 149 111 159 165 188 177 198 179 208 184 219 169 172 178 193 216 233 252 196 131 175 227 304 303 300 298
243 242 241 240 244 226 223 225 221 212 214 225 219 217 221 212 202 190 166 176 149 178 178 194 153 237 182 173 242 193 244 211 188 176 208 206 162 317 308 316 303 306 293 287
246 242 240 239 237 244 224 217 218 203 212 220 200 213 216 217 219 215 200 219 206 189 213 102 68 241 93 188 228 254 252 220 224 253 259 265 278 288 295 307 295 290 279 288
244 243 244 238 238 239 242 235 206 197 192 208 217 216 213 215 212 210 213 215 206 210 203 165 172 176 214 258 243 161 220 1 254 267 271 278 274 282 292 302 298 275 288 283
243 245 243 239 237 239 249 240 221 218 187 162 156 198 210 207 206 203 205 200 191 170 149 148 212 206 256 245 344 262 249 249 257 265 275 288 287 287 288 289 286 285 289 287
249 249 243 238 231 229 244 253 209 201 205 170 168 167 189 191 203 206 205 211 214 204 198 194 218 215 208 212 228 252 257 258 257 265 268 269 271 279 280 285 287 291 285 285
252 251 240 232 227 220 216 243 194 201 198 180 129 131 159 188 189 187 189 193 198 197 190 210 224 206 205 186 251 261 270 271 275 275 284 272 267 274 283 290 296 289 285 288
247 243 230 226 218 221 229 232 191 186 181 177 144 103 139 163 157 152 175 170 175 189 196 211 195 231 206 235 246 263 275 272 266 264 262 270 271 271 281 286 288 285 284 286
231 225 219 212 208 205 215 215 163 175 175 158 133 152 152 155 144 123 128 152 151 176 198 196 162 221 215 226 259 253 281 310 291 283 298 303 299 292 291 293 295 292 292 292
213 196 204 200 194 202 200 156 164 170 178 151 135 126 146 165 142 125 132 161 183 174 214 170 184 240 240 246 259 270 267 267 277 290 284 290 289 292 290 294 298 297 297 296
187 201 170 171 174 160 182 144 160 118 140 172 140 145 134 161 134 135 149 147 163 158 245 164 228 255 171 226 241 256 269 277 280 281 283 286 285 291 296 296 294 291 289 288
177 153 140 147 125 130 143 114 112 129 135 134 135 130 119 128 140 113 154 149 109 205 142 122 250 222 166 199 246 274 283 284 282 282 284 283 284 287 288 290 290 290 285 283
134 154 99 164 46 117 136 117 102 121 156 157 135 131 122 116 103 108 148 146 192 118 111 206 219 132 176 309 308 301 303 300 297 295 291 292 291 289 290 291 289 288 286 282
53 39 76 50 85 62 84 113 120 117 138 139 138 115 112 125 131 138 125 190 93 142 180 223 192 172 339 334 335 332 327 324 321 314 307 302 299 296 294 294 294 293 290 278
61 38 45 60 119 37 62 52 107 114 139 133 114 80 106 109 120 137 105 112 210 191 216 194 154 151 56 308 313 319 322 326 323 319 317 311 307 304 301 301 300 298 293 270
53 38 83 340 81 61 49 48 75 107 122 124 101 109 112 140 129 128 189 139 202 223 150 136 159 192 296 302 326 335 331 330 327 324 322 319 315 309 308 312 308 292 257 207
43 43 38 19 52 44 26 43 33 84 79 93 100 88 189 96 87 152 165 192 181 142 136 161 168 197 271 291 333 2 353 346 339 331 331 340 350 348 341 359 72 120 139 155
Wind_Speed_850mb
24 17 11 9 6 14 15 9 4 9 34 13 10 16 9 12 11 21 12 7 11 9 10 3 3 4 5 10 8 8 2 3 9 13 3 6 6 12 19 8 8 7 9 33
40 30 25 10 14 16 17 8 7 4 42 12 18 11 17 25 13 17 17 13 12 4 10 5 6 2 16 25 12 5 4 1 5 14 5 5 9 8 11 15 5 26 14 26
41 41 37 29 16 27 20 8 6 9 30 32 8 23 22 22 12 11 22 10 24 15 18 12 4 10 6 12 13 10 11 4 11 10 8 10 7 18 10 10 10 29 28 48
43 46 44 41 25 31 34 12 8 17 9 17 18 14 10 27 20 22 16 10 25 17 14 19 20 8 7 16 21 9 7 9 8 28 26 24 14 18 25 24 27 29 47 36
49 46 49 48 38 37 48 10 7 12 16 23 23 18 16 25 33 16 20 22 14 20 23 16 9 18 16 5 12 9 13 4 4 11 13 21 35 32 28 31 35 28 44 40
56 52 52 55 52 55 41 43 24 3 13 7 17 32 25 11 13 20 30 24 17 14 18 4 19 18 16 12 12 6 6 5 3 11 9 7 10 31 32 34 38 36 41 50
60 63 59 61 63 65 64 39 31 12 10 14 22 12 36 30 15 27 10 25 3 10 14 19 18 15 4 9 15 20 11 6 2 9 10 14 17 15 11 9 14 17 35 37
55 61 66 68 70 73 82 65 43 28 10 21 21 25 17 39 49 29 14 6 11 9 17 6 7 7 10 13 20 24 27 12 6 5 8 20 30 35 13 10 28 20 9 21
58 60 66 64 70 81 87 85 70 42 16 29 17 21 35 10 7 6 9 20 17 20 5 6 10 10 10 7 6 8 27 26 14 2 9 12 13 5 17 8 9 11 4 11
71 66 57 74 65 77 91 80 93 52 20 38 49 13 15 24 14 6 12 16 11 22 5 5 7 8 12 6 10 11 10 20 33 28 22 12 20 13 2 10 19 21 20 27
63 65 62 65 81 69 87 86 94 87 38 36 54 48 37 20 37 7 16 11 4 5 10 8 8 7 11 7 11 12 15 14 10 14 16 23 19 8 13 4 19 31 39 53
64 64 68 68 59 85 77 83 78 92 57 24 60 49 60 54 38 28 41 12 13 21 5 4 4 5 4 12 6 11 13 13 8 15 11 5 12 5 29 16 29 51 49 50
63 63 69 69 75 69 63 82 62 86 67 38 39 57 66 63 57 45 30 21 17 12 9 5 2 6 4 7 13 6 8 13 12 8 23 41 53 53 48 51 50 49 34 33
67 67 70 71 71 67 80 65 87 90 49 17 22 69 68 71 72 62 55 30 37 22 14 8 4 4 9 4 3 4 9 8 6 13 27 33 40 44 46 46 37 35 41 45
65 69 71 77 78 71 73 90 103 91 54 10 19 54 65 71 74 70 60 51 31 19 10 4 6 7 1 8 3 18 23 21 13 22 35 31 41 65 62 46 52 58 61 52
67 72 80 80 83 73 64 64 74 89 90 14 8 21 56 56 69 76 68 60 39 29 16 7 11 21 10 5 8 36 72 61 61 59 82 72 65 65 62 57 53 60 61 60
71 72 75 81 85 83 74 22 36 107 96 21 7 8 23 68 54 40 39 41 32 24 14 13 10 12 17 5 19 62 52 54 66 67 64 52 58 51 48 40 43 45 53 56
77 72 73 74 79 76 79 60 38 107 79 21 10 6 12 53 23 17 28 27 26 26 13 8 12 11 21 9 36 62 55 53 56 55 53 29 42 48 51 57 56 52 55 54
74 68 58 69 81 57 57 79 67 91 37 17 9 15 9 34 19 17 13 17 5 18 7 8 13 5 9 16 27 20 18 12 28 37 35 37 37 43 48 45 39 40 47 47
61 58 53 37 43 57 51 75 56 31 22 18 6 21 10 40 17 9 16 15 6 7 12 19 7 10 58 32 24 19 23 27 33 37 43 53 60 51 50 47 42 40 43 47
69 42 21 19 66 67 25 14 12 11 10 18 16 22 19 28 8 8 13 7 6 6 9 14 6 7 7 23 29 29 30 32 32 36 38 40 46 51 56 55 45 45 46 47
51 23 41 33 18 9 8 7 8 7 9 9 16 24 31 19 20 7 9 6 5 8 8 7 5 5 10 7 8 12 17 23 25 29 34 34 36 41 45 46 47 44 42 41
50 17 11 5 2 8 8 9 6 8 8 18 37 14 17 12 11 9 5 9 8 12 5 9 8 11 5 7 10 12 18 22 26 26 29 32 34 36 40 41 39 40 39 34
15 10 7 7 5 5 6 6 7 7 29 51 55 17 8 12 6 6 10 6 8 4 5 12 6 12 0 6 12 16 17 19 20 21 23 27 29 29 30 32 33 31 28 25
12 10 7 9 8 10 9 11 16 23 45 61 30 17 12 5 8 4 9 6 7 12 10 6 14 7 0 8 11 15 16 18 19 21 22 22 22 23 23 23 22 21 16 13
12 22 4 10 5 4 13 19 10 20 39 46 19 7 7 4 9 7 11 15 12 8 5 16 10 2 5 9 9 12 14 15 16 16 16 16 15 14 13 12 9 7 4 5
13 8 21 13 13 13 9 13 13 15 14 6 7 9 11 6 7 3 7 11 7 20 20 10 5 2 4 5 5 6 7 8 9 10 9 9 7 6 5 2 5 6 10 13
Wind_Direction_850mb
253 245 275 267 212 190 175 158 217 192 172 177 197 224 183 261 260 189 221 291 302 228 132 150 1 223 60 33 131 155 148 300 216 207 130 17 240 236 206 185 242 230 230 264
248 242 244 245 213 204 175 182 211 172 175 207 217 210 215 236 217 219 203 214 230 278 152 160 202 190 4 2 44 21 341 276 56 328 279 56 250 210 239 238 272 252 230 259
251 240 239 222 190 220 212 193 189 195 205 243 256 217 218 225 216 268 237 228 227 222 247 238 214 160 167 94 97 79 82 5 199 211 98 42 353 334 298 271 241 259 248 266
248 236 231 226 215 202 224 215 229 196 195 233 235 268 210 218 221 204 217 237 237 218 226 221 229 148 152 195 174 106 75 200 236 268 290 311 281 261 275 262 278 253 262 258
247 238 229 225 211 194 217 218 211 229 264 206 198 225 235 231 213 167 215 238 214 232 238 220 187 204 191 187 43 159 143 239 236 268 261 266 273 263 247 250 251 249 264 267
243 238 232 224 212 201 209 224 236 278 222 223 202 212 215 254 225 245 216 216 228 255 241 43 59 81 75 118 134 128 152 159 175 262 101 353 281 245 248 248 244 246 254 262
241 237 233 226 223 215 212 212 207 209 235 203 223 219 211 236 244 223 282 217 224 116 106 92 70 69 50 215 195 168 165 160 140 273 47 259 242 268 244 265 279 265 250 259
247 237 235 230 228 226 214 214 207 206 246 232 236 238 233 216 230 248 170 142 168 171 106 73 47 351 22 247 222 214 210 173 243 205 205 278 306 285 271 250 286 300 359 341
252 245 236 230 229 225 219 221 220 209 225 230 251 230 230 213 174 87 118 178 151 139 104 111 170 195 193 270 281 230 217 212 199 188 215 222 233 157 50 240 288 14 29 293
241 246 245 230 228 225 221 219 220 208 214 232 216 215 220 220 172 127 139 148 133 165 132 151 175 224 175 211 175 166 166 211 217 227 239 259 251 276 312 220 271 327 308 321
242 241 243 237 231 219 224 224 220 212 225 225 210 210 216 193 188 163 149 111 159 165 188 177 198 179 208 184 219 169 172 178 193 216 233 252 196 131 175 227 304 303 300 298
243 242 241 240 244 226 223 225 221 212 214 225 219 217 221 212 202 190 166 176 149 178 178 194 153 237 182 173 242 193 244 211 188 176 208 206 162 317 308 316 303 306 293 287
246 242 240 239 237 244 224 217 218 203 212 220 200 213 216 217 219 215 200 219 206 189 213 102 68 241 93 188 228 254 252 220 224 253 259 265 278 288 295 307 295 290 279 288
244 243 244 238 238 239 242 235 206 197 192 208 217 216 213 215 212 210 213 215 206 210 203 165 172 176 214 258 243 161 220 1 254 267 271 278 274 282 292 302 298 275 288 283
243 245 243 239 237 239 249 240 221 218 187 162 156 198 210 207 206 203 205 200 191 170 149 148 212 206 256 245 344 262 249 249 257 265 275 288 287 287 288 289 286 285 289 287
249 249 243 238 231 229 244 253 209 201 205 170 168 167 189 191 203 206 205 211 214 204 198 194 218 215 208 212 228 252 257 258 257 265 268 269 271 279 280 285 287 291 285 285
252 251 240 232 227 220 216 243 194 201 198 180 129 131 159 188 189 187 189 193 198 197 190 210 224 206 205 186 251 261 270 271 275 275 284 272 267 274 283 290 296 289 285 288
247 243 230 226 218 221 229 232 191 186 181 177 144 103 139 163 157 152 175 170 175 189 196 211 195 231 206 235 246 263 275 272 266 264 262 270 271 271 281 286 288 285 284 286
231 225 219 212 208 205 215 215 163 175 175 158 133 152 152 155 144 123 128 152 151 176 198 196 162 221 215 226 259 253 281 310 291 283 298 303 299 292 291 293 295 292 292 292
213 196 204 200 194 202 200 156 164 170 178 151 135 126 146 165 142 125 132 161 183 174 214 170 184 240 240 246 259 270 267 267 277 290 284 290 289 292 290 294 298 297 297 296
187 201 170 171 174 160 182 144 160 118 140 172 140 145 134 161 134 135 149 147 163 158 245 164 228 255 171 226 241 256 269 277 280 281 283 286 285 291 296 296 294 291 289 288
177 153 140 147 125 130 143 114 112 129 135 134 135 130 119 128 140 113 154 149 109 205 142 122 250 222 166 199 246 274 283 284 282 282 284 283 284 287 288 290 290 290 285 283
134 154 99 164 46 117 136 117 102 121 156 157 135 131 122 116 103 108 148 146 192 118 111 206 219 132 176 309 308 301 303 300 297 295 291 292 291 289 290 291 289 288 286 282
53 39 76 50 85 62 84 113 120 117 138 139 138 115 112 125 131 138 125 190 93 142 180 223 192 172 339 334 335 332 327 324 321 314 307 302 299 296 294 294 294 293 290 278
61 38 45 60 119 37 62 52 107 114 139 133 114 80 106 109 120 137 105 112 210 191 216 194 154 151 56 308 313 319 322 326 323 319 317 311 307 304 301 301 300 298 293 270
53 38 83 340 81 61 49 48 75 107 122 124 101 109 112 140 129 128 189 139 202 223 150 136 159 192 296 302 326 335 331 330 327 324 322 319 315 309 308 312 308 292 257 207
43 43 38 19 52 44 26 43 33 84 79 93 100 88 189 96 87 152 165 192 181 142 136 161 168 197 271 291 333 2 353 346 339 331 331 340 350 348 341 359 72 120 139 155